TimeCDT,TemperatureF,Dew PointF,Humidity,Sea Level PressureIn,VisibilityMPH,Wind Direction,Wind SpeedMPH,Gust SpeedMPH,PrecipitationIn,Events,Conditions,WindDirDegrees,DateUTC
12:51 AM,50.0,45.0,83,30.13,9.0,ENE,5.8,-,0.00,,Overcast,60,2013-04-17 05:51:00
1:51 AM,51.1,45.0,80,30.13,10.0,ENE,4.6,-,N/A,,Overcast,60,2013-04-17 06:51:00
2:38 AM,51.8,46.4,82,30.11,9.0,ENE,5.8,-,N/A,,Overcast,70,2013-04-17 07:38:00
2:51 AM,51.1,46.0,83,30.12,9.0,ENE,6.9,-,N/A,,Overcast,70,2013-04-17 07:51:00
3:25 AM,51.8,46.4,82,30.11,10.0,NE,5.8,-,N/A,,Overcast,50,2013-04-17 08:25:00
3:51 AM,51.1,46.0,83,30.11,10.0,ENE,6.9,-,N/A,,Overcast,60,2013-04-17 08:51:00
4:32 AM,51.8,46.4,82,30.10,8.0,East,9.2,-,N/A,,Overcast,90,2013-04-17 09:32:00
4:51 AM,51.1,46.9,86,30.10,6.0,East,8.1,-,N/A,,Overcast,90,2013-04-17 09:51:00
5:04 AM,51.8,46.4,82,30.08,4.0,East,10.4,-,0.00,,Light Drizzle,90,2013-04-17 10:04:00
5:21 AM,50.0,46.4,87,30.08,3.0,East,9.2,-,0.00,,Light Drizzle,100,2013-04-17 10:21:00
5:51 AM,51.1,48.0,89,30.06,3.0,East,9.2,-,0.00,,Light Drizzle,80,2013-04-17 10:51:00
6:12 AM,51.8,48.2,88,30.06,3.0,ESE,10.4,-,0.00,,Light Drizzle,120,2013-04-17 11:12:00
6:48 AM,51.8,48.2,88,30.07,2.5,ESE,8.1,-,0.00,,Light Drizzle,110,2013-04-17 11:48:00
6:51 AM,51.1,48.0,89,30.07,2.5,East,8.1,-,0.00,,Light Drizzle,100,2013-04-17 11:51:00
7:22 AM,51.8,48.2,88,30.07,1.5,East,10.4,-,0.00,,Light Drizzle,100,2013-04-17 12:22:00
7:49 AM,51.8,48.2,88,30.08,0.5,East,6.9,-,0.00,Fog,Fog,90,2013-04-17 12:49:00
7:51 AM,52.0,48.9,89,30.09,0.5,East,6.9,-,0.00,Fog,Fog,100,2013-04-17 12:51:00
8:36 AM,51.8,50.0,94,30.08,0.2,East,9.2,-,N/A,Fog,Fog,90,2013-04-17 13:36:00
8:48 AM,51.8,50.0,94,30.07,0.2,ESE,9.2,-,N/A,Fog,Fog,110,2013-04-17 13:48:00
8:51 AM,52.0,50.0,93,30.07,0.2,East,8.1,-,N/A,Fog,Fog,100,2013-04-17 13:51:00
9:27 AM,53.6,51.8,94,30.05,0.8,SE,12.7,-,N/A,,Overcast,130,2013-04-17 14:27:00
9:51 AM,55.0,53.1,93,30.05,1.0,SE,16.1,-,N/A,,Overcast,130,2013-04-17 14:51:00
10:33 AM,57.2,53.6,88,30.02,2.0,SE,10.4,-,N/A,,Overcast,130,2013-04-17 15:33:00
10:51 AM,60.1,55.0,83,30.01,2.5,SE,12.7,-,N/A,,Haze,140,2013-04-17 15:51:00
11:11 AM,62.6,57.2,82,30.00,3.0,SE,12.7,-,N/A,,Haze,140,2013-04-17 16:11:00
11:25 AM,64.4,57.2,77,29.99,5.0,SSE,12.7,19.6,N/A,,Haze,160,2013-04-17 16:25:00
11:39 AM,66.2,59.0,78,29.99,5.0,South,12.7,-,N/A,,Haze,170,2013-04-17 16:39:00
11:51 AM,68.0,60.1,76,29.98,5.0,South,11.5,-,N/A,,Haze,180,2013-04-17 16:51:00
12:51 PM,73.0,63.0,71,29.95,8.0,SSE,11.5,-,N/A,,Mostly Cloudy,150,2013-04-17 17:51:00
1:51 PM,75.9,63.0,64,29.89,9.0,South,20.7,26.5,N/A,,Mostly Cloudy,170,2013-04-17 18:51:00
2:51 PM,81.0,66.0,60,29.86,9.0,SSE,16.1,23.0,0.01,,Mostly Cloudy,150,2013-04-17 19:51:00
3:51 PM,84.0,64.0,51,29.81,10.0,SSE,20.7,28.8,N/A,,Mostly Cloudy,160,2013-04-17 20:51:00
4:51 PM,84.9,62.1,46,29.79,10.0,SSE,23.0,28.8,N/A,,Mostly Cloudy,160,2013-04-17 21:51:00
5:51 PM,82.9,64.9,54,29.76,10.0,SE,17.3,28.8,N/A,,Mostly Cloudy,140,2013-04-17 22:51:00
6:51 PM,81.0,64.0,56,29.73,10.0,SSE,13.8,-,N/A,,Mostly Cloudy,150,2013-04-17 23:51:00
7:51 PM,81.0,59.0,47,29.71,10.0,SSE,15.0,23.0,N/A,,Overcast,160,2013-04-18 00:51:00
8:51 PM,79.0,63.0,58,29.71,10.0,SSE,18.4,23.0,N/A,,Overcast,150,2013-04-18 01:51:00
9:51 PM,78.1,63.0,60,29.71,10.0,South,16.1,26.5,N/A,,Overcast,170,2013-04-18 02:51:00
10:51 PM,78.1,63.0,60,29.68,10.0,South,17.3,26.5,N/A,,Overcast,180,2013-04-18 03:51:00
11:51 PM,77.0,63.0,62,29.65,10.0,South,21.9,25.3,N/A,,Overcast,170,2013-04-18 04:51:00